Regional Weather Roundup
Issued by NWS

Home | Current Version | Previous Version | Graphics & Text | Print | Product List | Glossary On
Versions: 1 2 3 4 5 6 7 8 9 10 11 12 13 14 15 16 17 18 19 20 21 22 23 24 25 26 27 28 29 30 31 32 33 34 35 36 37 38 39 40 41 42 43 44 45 46
000
ASUS45 KSLC 031010
RWRUT

UTAH REGIONAL WEATHER ROUNDUP
NATIONAL WEATHER SERVICE SALT LAKE CITY UT
400 AM MDT THU SEP 03 2015

UTZ001>011-023>025-031100-

NORTHERN UTAH

CITY           SKY/WX    TMP DP  RH WIND       PRES   REMARKS
BRIGHAM CITY     N/A     79  33  18 S14G21    29.86S
HILL AFB         N/A     75  38  26 S16       29.91S
LOGAN          PTCLDY    78  35  21 S13       29.86S
OGDEN            N/A     76  38  25 S15       29.88R
PROVO AIRPORT    N/A     61  43  51 E9        29.96S
SALT LAKE CITY   N/A     78  40  25 S17       29.88S
VERNAL         CLOUDY    61  44  53 W5        30.01R
WENDOVER         N/A     77  30  18 S18       29.84S
HEBER CITY       N/A     72  34  25 S10       30.01S
WEST JORDAN    CLEAR     72  41  33 SE12      29.93S

$$

UTZ012>022-026-027-031100-

SOUTHERN/CENTRAL UTAH

CITY           SKY/WX    TMP DP  RH WIND       PRES   REMARKS
BLANDING       CLOUDY    64  48  56 CALM      30.23S
BRYCE CANYON     N/A     47  38  71 CALM      30.23S
CEDAR CITY       N/A     65  35  33 SW7       30.06F
DELTA            N/A     67  37  32 S15G21    29.98S
HANKSVILLE       N/A     73  50  43 S9        30.01R
MILFORD          N/A     62  36  37 SW10      30.02S
MOAB/CYNLANDS  MOCLDY    73  50  44 E10       29.99R
PRICE            N/A     61  40  45 NE7       30.06R
ST GEORGE        N/A     75  37  25 SE8       29.93S
KANAB            N/A     57  48  72 CALM      30.14R

$$

REGIONAL REPORTS     COLORADO/ARIZONA

CITY           SKY/WX    TMP DP  RH WIND       PRES   REMARKS
CRAIG, CO      PTCLDY    48  45  89 S3        30.11S
GRAND JUNCTION MOCLDY    71  49  45 E12       30.01S
RIFLE          PTCLDY    57  52  83 CALM      30.09S
MONTROSE       CLOUDY    65  49  56 SE7       30.13F
CORTEZ         CLOUDY    61  57  87 CALM      30.18R
PAGE, AZ         N/A     73  49  42 S3        30.04R
GRAND CANYON     N/A     50  45  83 NE3       30.22S
KINGMAN          N/A     75  38  26 S9        29.97S
FLAGSTAFF        N/A     45  38  76 CALM      30.25F

$$

REGIONAL REPORTS    NEVADA/IDAHO/WYOMING

CITY           SKY/WX    TMP DP  RH WIND       PRES   REMARKS
LAS VEGAS, NV  MOCLDY    84  43  23 S6        29.80S
ELY              N/A     62  38  40 S17G25    30.03F
ELKO             N/A     61  31  32 S8        29.93R
POCATELLO, ID  CLEAR     68  38  33 SW16      29.83R
BURLEY           N/A     62  38  40 W7        29.83R
EVANSTON, WY   PTCLDY    60  33  36 SW9G20    30.08S
ROCK SPRINGS   PTCLDY    61  38  42 S6        30.07S
KEMMERER       MOCLDY    59  32  36 SW7       30.10S

$$



USA.gov is the U.S. government's official web portal to all federal, state and local government web resources and services.